[Date Prev][Date Next][Thread Prev][Thread Next] - [Date Index][Thread Index][Author Index]

2 Line ISS Keps 6-26



ISS
1 25544U 98067A   05176.86848380  .00009027  00000-0  68840-4 0  7754
2 25544 051.6442 216.3977 0003946 308.8869 047.2559 15.73104314377045
----
Via the sarex mailing list at AMSAT.ORG courtesy of AMSAT-NA.
To unsubscribe, send "unsubscribe sarex" to Majordomo@amsat.org



AMSAT Top AMSAT Home